This is the latest recevied weather packets stored in our database for station/object W4DHW-4. If no packets are shown the sender has not sent any weather packets the latest 10 day(s).
| Time | Temp. | Humidity | Pressure | Rain* | Wind** | Luminosity | Snow |
|---|---|---|---|---|---|---|---|
| 1777609025 | 8.33° C | 77% | 1016.3 hPa | 0 mm | - | 0 W/m² | - |
| 1777608722 | 8.89° C | 73% | 1016 hPa | 0 mm | - | 0 W/m² | - |
| 1777608419 | 8.89° C | 71% | 1016.2 hPa | 0 mm | - | 0 W/m² | - |
| 1777608117 | 8.89° C | 73% | 1016.1 hPa | 0 mm | - | 0 W/m² | - |
| 1777607813 | 8.33° C | 74% | 1015.9 hPa | 0 mm | - | 0 W/m² | - |
| 1777607509 | 8.89° C | 71% | 1015.9 hPa | 0 mm | - | 0 W/m² | - |
| 1777607206 | 8.89° C | 71% | 1016 hPa | 0 mm | - | 0 W/m² | - |
| 1777606902 | 8.33° C | 73% | 1015.6 hPa | 0 mm | - | 0 W/m² | - |
| 1777606598 | 8.89° C | 75% | 1015.9 hPa | 0 mm | - | 0 W/m² | - |
| 1777606293 | 8.89° C | 71% | 1015.6 hPa | 0 mm | - | 0 W/m² | - |
| 1777605989 | 8.89° C | 73% | 1015.9 hPa | 0 mm | - | 0 W/m² | - |
| 1777605685 | 9.44° C | 72% | 1015.8 hPa | 0 mm | - | 0 W/m² | - |
| 1777605384 | 10° C | 67% | 1015.6 hPa | 0 mm | - | 0 W/m² | - |
| 1777605081 | 10° C | 65% | 1015.8 hPa | 0 mm | - | 0 W/m² | - |
| 1777604776 | 10° C | 65% | 1015.8 hPa | 0 mm | - | 0 W/m² | - |
| 1777604474 | 10° C | 65% | 1015.5 hPa | 0 mm | - | 0 W/m² | - |
| 1777604173 | 10.56° C | 65% | 1015.6 hPa | 0 mm | - | 0 W/m² | - |
| 1777603870 | 10.56° C | 65% | 1015.6 hPa | 0 mm | - | 0 W/m² | - |
| 1777603567 | 10.56° C | 63% | 1015.9 hPa | 0 mm | - | 0 W/m² | - |
| 1777603262 | 11.11° C | 63% | 1015.8 hPa | 0 mm | - | 0 W/m² | - |
| 1777602958 | 11.11° C | 62% | 1015.8 hPa | 0 mm | - | 0 W/m² | - |
| 1777602653 | 11.11° C | 62% | 1015.6 hPa | 0 mm | - | 0 W/m² | - |
| 1777602348 | 11.11° C | 61% | 1015.2 hPa | 0 mm | - | 0 W/m² | - |
| 1777602045 | 11.11° C | 61% | 1015.3 hPa | 0 mm | - | 0 W/m² | - |
| 1777601744 | 11.67° C | 60% | 1015.2 hPa | 0 mm | - | 0 W/m² | - |
* Rain latest hour (hover to see other rain measurements)
** Current wind speed in m/s (hover to see current wind gust speed)